TimeEDT,TemperatureF,Dew PointF,Humidity,Sea Level PressureIn,VisibilityMPH,Wind Direction,Wind SpeedMPH,Gust SpeedMPH,PrecipitationIn,Events,Conditions,WindDirDegrees,DateUTC
12:56 AM,80.1,70.0,71,30.10,10.0,SSW,5.8,-,N/A,,Mostly Cloudy,200,2013-07-09 04:56:00
1:56 AM,79.0,70.0,74,30.09,10.0,South,5.8,-,N/A,,Overcast,190,2013-07-09 05:56:00
2:56 AM,78.1,70.0,76,30.08,10.0,SW,3.5,-,N/A,,Overcast,230,2013-07-09 06:56:00
3:56 AM,79.0,70.0,74,30.08,10.0,WSW,3.5,-,N/A,,Overcast,240,2013-07-09 07:56:00
4:56 AM,79.0,69.1,72,30.08,10.0,SSW,4.6,-,N/A,,Overcast,200,2013-07-09 08:56:00
5:56 AM,77.0,71.1,82,30.08,10.0,SSE,5.8,-,N/A,,Overcast,160,2013-07-09 09:56:00
6:56 AM,77.0,71.1,82,30.10,10.0,Calm,Calm,-,0.00,,Overcast,0,2013-07-09 10:56:00
7:56 AM,78.1,72.0,81,30.09,10.0,SE,4.6,-,N/A,,Overcast,130,2013-07-09 11:56:00
8:56 AM,80.1,70.0,71,30.09,10.0,SSW,4.6,-,N/A,,Mostly Cloudy,210,2013-07-09 12:56:00
9:56 AM,84.9,72.0,65,30.09,10.0,WSW,6.9,-,N/A,,Scattered Clouds,250,2013-07-09 13:56:00
10:56 AM,86.0,72.0,63,30.09,10.0,West,16.1,-,N/A,,Scattered Clouds,260,2013-07-09 14:56:00
11:56 AM,88.0,72.0,59,30.09,10.0,WSW,11.5,19.6,N/A,,Scattered Clouds,250,2013-07-09 15:56:00
12:56 PM,89.1,72.0,57,30.08,10.0,WSW,12.7,-,N/A,,Mostly Cloudy,240,2013-07-09 16:56:00
1:56 PM,90.0,72.0,55,30.07,10.0,SW,15.0,-,N/A,,Mostly Cloudy,230,2013-07-09 17:56:00
2:56 PM,90.0,72.0,55,30.06,10.0,WSW,13.8,19.6,N/A,,Mostly Cloudy,240,2013-07-09 18:56:00
3:56 PM,90.0,72.0,55,30.04,10.0,WSW,10.4,-,N/A,,Mostly Cloudy,240,2013-07-09 19:56:00
4:56 PM,90.0,71.1,54,30.01,10.0,SSW,10.4,-,N/A,,Scattered Clouds,200,2013-07-09 20:56:00
5:56 PM,90.0,72.0,55,30.01,10.0,SSW,9.2,-,N/A,,Mostly Cloudy,200,2013-07-09 21:56:00
6:56 PM,89.1,72.0,57,30.00,10.0,SW,6.9,-,N/A,,Mostly Cloudy,230,2013-07-09 22:56:00
7:56 PM,89.1,71.1,55,29.99,10.0,WSW,8.1,-,N/A,,Mostly Cloudy,250,2013-07-09 23:56:00
8:56 PM,87.1,71.1,59,29.99,10.0,SSW,6.9,-,N/A,,Mostly Cloudy,200,2013-07-10 00:56:00
9:56 PM,84.9,72.0,65,30.00,10.0,South,6.9,-,N/A,,Scattered Clouds,190,2013-07-10 01:56:00
10:56 PM,84.0,72.0,67,30.01,10.0,South,6.9,-,N/A,,Scattered Clouds,190,2013-07-10 02:56:00
11:56 PM,82.9,72.0,69,30.00,10.0,SSW,4.6,-,N/A,,Mostly Cloudy,200,2013-07-10 03:56:00